DW7857 Weather Reports


Display with metric or nautical units.
time (UTC)temp
F
wind
direction
speed
MPH
gust
MPH
rain 1hr
in
rain 24hr
in
rain mn
in
humidity
%
barometer
mb
20220522164503 65 219 4.0 8.0 0.00 0.00 0.00 48 989.4
20220522163603 65 202 5.0 9.0 0.00 0.00 0.00 49 989.9
20220522162703 66 214 5.0 9.0 0.00 0.00 0.00 47 989.8
20220522161803 66 189 4.0 8.0 0.00 0.00 0.00 46 989.9
20220522160903 66 188 5.0 8.0 0.00 0.00 0.00 49 990.1
20220522160003 67 231 3.0 8.0 0.00 0.00 0.00 47 990.0
20220522155403 69 196 4.0 8.0 0.00 0.00 0.00 46 990.2
20220522154503 69 200 4.0 8.0 0.00 0.00 0.00 46 990.3
20220522153603 69 184 4.0 7.0 0.00 0.00 0.00 46 990.3
20220522152703 70 230 3.0 10.0 0.00 0.00 0.00 45 990.2
20220522151803 69 198 4.0 8.0 0.00 0.00 0.00 44 990.3
20220522150903 69 173 4.0 8.0 0.00 0.00 0.00 44 990.4
20220522150003 69 179 4.0 9.0 0.00 0.00 0.00 44 990.4
20220522145403 69 204 4.0 9.0 0.00 0.00 0.00 42 990.5
20220522144503 69 166 3.0 8.0 0.00 0.00 0.00 43 990.5
20220522143603 68 211 5.0 9.0 0.00 0.00 0.00 45 990.7
20220522142703 68 177 4.0 9.0 0.00 0.00 0.00 42 990.7
20220522141803 68 168 4.0 10.0 0.00 0.00 0.00 42 991.1
20220522140903 68 161 4.0 8.0 0.00 0.00 0.00 43 991.1
20220522140003 68 180 4.0 10.0 0.00 0.00 0.00 43 991.1
20220522135403 68 151 4.0 8.0 0.00 0.00 0.00 44 991.1
20220522134503 67 159 5.0 9.0 0.00 0.00 0.00 41 991.3
20220522133603 68 162 5.0 10.0 0.00 0.00 0.00 42 991.4
20220522132703 68 161 4.0 8.0 0.00 0.00 0.00 41 991.6
20220522131803 68 177 4.0 9.0 0.00 0.00 0.00 41 991.6
20220522130903 68 107 4.0 7.0 0.00 0.00 0.00 39 991.8
20220522130003 67 176 5.0 10.0 0.00 0.00 0.00 41 991.6
20220522125403 67 152 5.0 10.0 0.00 0.00 0.00 42 991.9
20220522124503 67 193 5.0 10.0 0.00 0.00 0.00 40 992.0
20220522123603 67 188 5.0 10.0 0.00 0.00 0.00 42 992.0
20220522122703 67 203 6.0 11.0 0.00 0.00 0.00 41 992.2
20220522121803 67 190 5.0 8.0 0.00 0.00 0.00 42 992.2
20220522120903 67 188 4.0 8.0 0.00 0.00 0.00 41 992.3
20220522120003 67 180 5.0 11.0 0.00 0.00 0.00 42 992.4
20220522115403 67 177 5.0 11.0 0.00 0.00 0.00 42 992.3
20220522114503 67 166 4.0 8.0 0.00 0.00 0.00 41 992.5
20220522113603 67 189 5.0 10.0 0.00 0.00 0.00 42 992.6
20220522112703 68 220 4.0 8.0 0.00 0.00 0.00 43 992.5
20220522111803 68 196 4.0 8.0 0.00 0.00 0.00 43 992.7
20220522110903 67 192 4.0 7.0 0.00 0.00 0.00 44 992.6
20220522110003 67 192 4.0 8.0 0.00 0.00 0.00 45 992.9
20220522105403 67 224 3.0 8.0 0.00 0.00 0.00 46 993.1
20220522104503 66 179 4.0 8.0 0.00 0.00 0.00 46 993.0
20220522103603 66 196 4.0 8.0 0.00 0.00 0.00 50 993.0
20220522102703 67 168 4.0 8.0 0.00 0.00 0.00 46 993.1
20220522101803 67 185 3.0 7.0 0.00 0.00 0.00 47 993.1
20220522100903 65 224 3.0 8.0 0.00 0.00 0.00 48 993.4
20220522100003 66 164 3.0 7.0 0.00 0.00 0.00 46 993.7
20220522095403 66 137 2.0 7.0 0.00 0.00 0.00 48 993.4
20220522094503 66 190 2.0 6.0 0.00 0.00 0.00 51 993.6
20220522093603 64 200 3.0 6.0 0.00 0.00 0.00 50 993.7
20220522092703 64 207 4.0 7.0 0.00 0.00 0.00 53 994.0
20220522091803 64 203 3.0 7.0 0.00 0.00 0.00 53 994.1
20220522090903 63 198 4.0 7.0 0.00 0.00 0.00 58 994.2
20220522090003 63 182 5.0 8.0 0.00 0.00 0.00 54 994.3
20220522085403 63 197 5.0 8.0 0.00 0.00 0.00 53 994.4
20220522084503 63 192 5.0 12.0 0.00 0.00 0.00 56 994.6
20220522083603 63 177 5.0 8.0 0.00 0.00 0.00 59 994.4
20220522082703 64 182 4.0 8.0 0.00 0.00 0.00 61 994.5
20220522081803 65 192 3.0 8.0 0.00 0.00 0.00 61 994.7
20220522080903 64 208 3.0 7.0 0.00 0.00 0.00 62 994.8
20220522080003 63 202 3.0 6.0 0.00 0.00 0.00 64 994.8
20220522075403 64 225 2.0 6.0 0.00 0.00 0.00 61 994.8
20220522074503 64 172 2.0 4.0 0.00 0.00 0.00 61 994.6
20220522073603 63 192 2.0 5.0 0.00 0.00 0.00 66 994.8
20220522072703 63 186 2.0 5.0 0.00 0.00 0.00 67 994.8
20220522071803 62 172 2.0 4.0 0.00 0.00 0.00 66 995.1
20220522070903 62 190 2.0 4.0 0.00 0.00 0.00 70 994.9
20220522070003 62 192 1.0 4.0 0.00 0.00 0.00 70 995.2
20220522065403 62 176 1.0 3.0 0.00 0.00 0.00 74 995.1
20220522064503 59 182 2.0 3.0 0.00 0.00 0.00 73 995.4
20220522063603 58 168 2.0 4.0 0.00 0.00 0.00 76 995.4
20220522062703 56 183 2.0 5.0 0.00 0.00 0.00 80 995.8
20220522061803 56 185 2.0 4.0 0.00 0.00 0.00 84 995.5
20220522060903 57 212 1.0 3.0 0.00 0.00 0.00 90 995.6
20220522060003 54 124 0.0 2.0 0.00 0.00 0.00 92 995.6
20220522055403 52 173 1.0 2.0 0.00 0.00 0.00 92 995.6
20220522054503 51 168 0.0 2.0 0.00 0.00 0.00 91 995.8
20220522053603 50 109 1.0 2.0 0.00 0.00 0.00 91 995.8
20220522052703 49 203 1.0 4.0 0.00 0.00 0.00 90 995.8
20220522051803 48 205 1.0 4.0 0.00 0.00 0.00 90 996.1
20220522050903 48 263 0.0 1.0 0.00 0.00 0.00 90 995.5
20220522050003 48 180 0.0 2.0 0.00 0.00 0.00 90 995.5
20220522045403 48 197 1.0 2.0 0.00 0.00 0.00 90 995.6
20220522044503 48 183 1.0 3.0 0.00 0.00 0.00 90 995.8
20220522043603 48 190 2.0 4.0 0.00 0.00 0.00 89 995.7
20220522042703 48 194 1.0 2.0 0.00 0.00 0.00 89 995.8
20220522041803 48 182 0.0 2.0 0.00 0.00 0.00 89 995.9
20220522040903 48 192 0.0 2.0 0.00 0.00 0.00 89 995.8
20220522040003 48 188 0.0 2.0 0.00 0.00 0.00 88 996.0
20220522035403 48 228 0.0 2.0 0.00 0.00 0.00 88 996.0
20220522034503 48 170 1.0 2.0 0.00 0.00 0.00 88 996.0
20220522033603 48 161 1.0 3.0 0.00 0.00 0.00 87 996.3
20220522032703 48 179 1.0 2.0 0.00 0.00 0.00 87 996.5
20220522031803 49 236 1.0 2.0 0.00 0.00 0.00 87 996.5
20220522030903 49 224 0.0 2.0 0.00 0.00 0.00 86 996.5
20220522030003 49 0 0.0 1.0 0.00 0.00 0.00 86 996.5
20220522025403 49 0 0.0 1.0 0.00 0.00 0.00 86 996.6
20220522024503 49 139 0.0 2.0 0.00 0.00 0.00 86 996.8
20220522023603 49 197 0.0 2.0 0.00 0.00 0.00 86 996.6
20220522022703 49 180 0.0 1.0 0.00 0.00 0.00 86 996.8
20220522021803 50 174 1.0 2.0 0.00 0.00 0.00 86 996.7
20220522020903 50 270 0.0 2.0 0.00 0.00 0.00 86 996.9
20220522020003 50 0 0.0 1.0 0.00 0.00 0.00 86 996.9
20220522015403 50 270 0.0 2.0 0.00 0.00 0.00 86 997.2
20220522014503 51 196 0.0 2.0 0.00 0.00 0.00 86 997.3
20220522013603 51 186 1.0 2.0 0.00 0.00 0.00 87 997.4
20220522012703 51 185 1.0 3.0 0.00 0.00 0.00 86 997.5
20220522011803 51 189 1.0 3.0 0.00 0.00 0.00 86 997.6
20220522010903 51 181 1.0 3.0 0.00 0.00 0.00 86 997.7
20220522010003 51 182 1.0 3.0 0.00 0.00 0.00 86 997.8
20220522005403 51 194 1.0 3.0 0.00 0.00 0.00 86 997.7
20220522004503 51 221 0.0 2.0 0.00 0.00 0.00 85 997.7
20220522003603 51 186 0.0 2.0 0.00 0.00 0.00 85 997.9
20220522002703 51 193 2.0 4.0 0.00 0.00 0.00 85 998.0
20220522001803 51 168 1.0 4.0 0.00 0.00 0.00 85 998.1
20220522000903 50 0 0.0 0.0 0.00 0.00 0.00 83 998.6
20220522000003 51 0 0.0 1.0 0.00 0.00 0.00 83 998.6
20220521235403 51 0 0.0 1.0 0.00 0.00 0.00 84 998.1
20220521234503 51 90 0.0 1.0 0.00 0.00 0.00 84 998.2
20220521233603 51 90 0.0 2.0 0.00 0.00 0.00 83 998.3
20220521232703 51 90 0.0 2.0 0.00 0.00 0.00 82 998.2
20220521231803 51 0 0.0 0.0 0.00 0.00 0.00 82 998.4
20220521230903 51 0 0.0 0.0 0.00 0.00 0.00 82 998.5
20220521230004 52 90 0.0 2.0 0.00 0.00 0.00 82 998.8
20220521225403 52 90 0.0 2.0 0.00 0.00 0.00 82 998.6
20220521224503 52 90 1.0 2.0 0.00 0.00 0.00 82 998.9
20220521223603 52 90 1.0 2.0 0.00 0.00 0.00 82 999.0
20220521222703 52 90 1.0 2.0 0.00 0.00 0.00 81 999.0
20220521221803 52 79 1.0 2.0 0.00 0.00 0.00 81 999.0
20220521220903 52 60 0.0 2.0 0.00 0.00 0.00 80 999.2
20220521220003 53 45 0.0 2.0 0.00 0.00 0.00 80 999.1
20220521215403 53 45 0.0 2.0 0.00 0.00 0.00 80 999.1
20220521214503 53 172 0.0 2.0 0.00 0.00 0.00 80 999.2
20220521213603 53 206 1.0 3.0 0.00 0.00 0.00 79 999.0
20220521212703 54 208 1.0 2.0 0.00 0.00 0.00 78 999.1
20220521211803 54 189 1.0 3.0 0.00 0.00 0.00 77 999.0
20220521210903 54 144 0.0 2.0 0.00 0.00 0.00 76 998.9
20220521210003 55 165 1.0 2.0 0.00 0.00 0.00 72 999.3
20220521205403 55 192 1.0 3.0 0.00 0.00 0.00 72 999.4
20220521204503 55 189 1.0 4.0 0.00 0.00 0.00 72 999.4
20220521203603 56 163 1.0 3.0 0.00 0.00 0.00 70 999.6
20220521202703 56 176 1.0 4.0 0.00 0.00 0.00 70 999.1
20220521201803 56 163 1.0 3.0 0.00 0.00 0.00 69 999.3
20220521200903 57 161 1.0 3.0 0.00 0.00 0.00 68 999.1
20220521200003 58 196 1.0 3.0 0.00 0.00 0.00 67 998.9
20220521195403 58 156 1.0 4.0 0.00 0.00 0.00 67 999.3
20220521194503 58 120 1.0 3.0 0.00 0.00 0.00 66 999.1
20220521193603 59 186 1.0 4.0 0.00 0.00 0.00 67 999.0
20220521192703 59 204 3.0 5.0 0.00 0.00 0.00 65 999.2
20220521191804 60 186 3.0 4.0 0.00 0.00 0.00 63 999.1
20220521190903 61 158 3.0 5.0 0.00 0.00 0.00 62 999.2
20220521190003 62 197 3.0 7.0 0.00 0.00 0.00 60 999.2
20220521185403 62 195 3.0 7.0 0.00 0.00 0.00 58 999.0
20220521184503 63 225 2.0 7.0 0.00 0.00 0.00 58 999.0
20220521182703 63 159 2.0 4.0 0.00 0.00 0.00 61 999.0
20220521181803 63 185 3.0 6.0 0.00 0.00 0.00 60 998.8
20220521180903 63 171 3.0 8.0 0.00 0.00 0.00 60 999.5
20220521180003 63 133 2.0 6.0 0.00 0.00 0.00 61 999.2
20220521175403 62 178 3.0 7.0 0.00 0.00 0.00 61 999.2
20220521174503 63 183 3.0 7.0 0.00 0.00 0.00 61 999.2
20220521173603 63 126 3.0 8.0 0.00 0.00 0.00 60 999.7
20220521172703 63 207 4.0 8.0 0.00 0.00 0.00 60 999.2
20220521171803 63 182 5.0 9.0 0.00 0.00 0.00 57 999.4
20220521170903 64 166 6.0 11.0 0.00 0.00 0.00 53 999.7
20220521170003 64 183 4.0 8.0 0.00 0.00 0.00 54 999.7
20220521165403 64 178 5.0 10.0 0.00 0.00 0.00 54 999.6